Simultaneous Nadir Overpasses (SNOs) Predictions

Prediction of SNOs between LANDSAT-8 and NOAA-19 Satellite Orbit:

Table of predicted SNOs for the next 14.0 days since TLE Epoch: 7/10/2015
Index Date (LANDSAT-8) Time (LANDSAT-8) Lat,Lon (LANDSAT-8) SZA (LANDSAT-8 ) Date (NOAA-19) Time (NOAA-19) Lat,Lon (NOAA-19) SZA (NOAA-19 ) Distance(km) Time Diff (sec)
1 07/11/2015 21:03:37 -73.36, 45.81 128.79 07/11/2015 21:02:58 -73.36, 45.85 128.79 1.09 39
2 07/11/2015 21:53:04 73.28,-146.71 51.14 07/11/2015 21:54:01 73.28,-146.74 51.14 0.87 57
3 07/14/2015 02:37:22 73.32, 142.29 51.49 07/14/2015 02:37:21 73.31, 142.40 51.48 3.69 1
4 07/14/2015 03:27:00 -72.78, -51.15 129.05 07/14/2015 03:28:08 -72.74, -49.06 129.09 69.14 68
5 07/16/2015 07:21:39 73.40, 71.39 51.91 07/16/2015 07:20:42 73.39, 71.42 51.90 1.47 57
6 07/16/2015 08:11:08 -73.33,-121.11 128.15 07/16/2015 08:11:40 -73.33,-121.19 128.16 2.60 32
7 07/18/2015 12:55:26 -73.36, 167.87 127.75 07/18/2015 12:55:01 -73.38, 167.89 127.73 2.60 25
8 07/18/2015 13:44:53 73.27, -24.67 52.17 07/18/2015 13:46:02 73.30, -24.67 52.20 3.00 69
9 07/20/2015 17:39:39 -73.64, 97.39 127.07 07/20/2015 17:38:27 -73.69, 96.37 127.02 32.48 72
10 07/20/2015 18:29:10 73.34, -95.60 52.64 07/20/2015 18:29:22 73.34, -95.56 52.64 1.07 12
11 07/22/2015 23:13:26 73.40,-166.54 53.13 07/22/2015 23:12:41 73.39,-166.46 53.11 2.93 45
12 07/23/2015 00:02:55 -73.34, 0.97 126.93 07/23/2015 00:03:41 -73.33, 0.91 126.94 2.38 46




NCC Satellite Simultaneous Nadir Overpasses (SNOs) Prediction Service
